This is the latest recevied weather packets stored in our database for station/object YM2KV-13. If no packets are shown the sender has not sent any weather packets the latest 10 day(s).
| Time | Temp. | Humidity | Pressure | Rain* | Wind** | Luminosity | Snow |
|---|---|---|---|---|---|---|---|
| 1777561779 | 14.44° C | 65% | 1026 hPa | - | - | - | - |
| 1777561179 | 15° C | 65% | 1026 hPa | - | - | - | - |
| 1777560579 | 15.56° C | 62% | 1025.9 hPa | - | - | - | - |
| 1777559979 | 16.11° C | 59% | 1025.9 hPa | - | - | - | - |
| 1777559379 | 17.22° C | 56% | 1025.9 hPa | - | - | - | - |
| 1777558779 | 17.22° C | 55% | 1025.8 hPa | - | - | - | - |
| 1777558179 | 18.33° C | 53% | 1025.8 hPa | - | - | - | - |
| 1777557579 | 18.89° C | 52% | 1025.7 hPa | - | - | - | - |
| 1777556979 | 20° C | 52% | 1025.7 hPa | - | - | - | - |
| 1777556379 | 20° C | 50% | 1025.8 hPa | - | - | - | - |
| 1777555779 | 20° C | 49% | 1025.9 hPa | - | - | - | - |
| 1777555179 | 20.56° C | 48% | 1025.8 hPa | - | - | - | - |
| 1777554579 | 21.11° C | 47% | 1026 hPa | - | - | - | - |
| 1777553979 | 21.67° C | 44% | 1026.1 hPa | - | - | - | - |
| 1777553379 | 21.67° C | 40% | 1026 hPa | - | - | - | - |
| 1777552779 | 22.22° C | 43% | 1026.1 hPa | - | - | - | - |
| 1777552179 | 22.22° C | 40% | 1026.1 hPa | - | - | - | - |
| 1777551579 | 22.78° C | 37% | 1026.2 hPa | - | - | - | - |
| 1777550979 | 22.22° C | 39% | 1026.3 hPa | - | - | - | - |
| 1777550379 | 22.78° C | 37% | 1026.5 hPa | - | - | - | - |
| 1777549779 | 23.33° C | 39% | 1026.5 hPa | - | - | - | - |
| 1777549179 | 23.33° C | 38% | 1026.6 hPa | - | - | - | - |
| 1777548578 | 22.78° C | 37% | 1026.7 hPa | - | - | - | - |
| 1777547979 | 22.78° C | 37% | 1026.9 hPa | - | - | - | - |
| 1777547378 | 23.33° C | 36% | 1027.1 hPa | - | - | - | - |
* Rain since midnight (hover to see other rain measurements)
** Current wind speed in m/s (hover to see current wind gust speed)